DB0TGO-13 Weather Reports


time (UTC)temp
C
wind
direction
speed
KPH
gust
KPH
rain 1hr
cm
rain 24hr
cm
rain mn
cm
humidity
%
barometer
mb
20260507204502 8 250 1.6 0.0 0.00 0.00 0.00 88 1012.1
20260507203002 8 240 3.2 0.0 0.00 0.00 0.00 88 1012.1
20260507201502 8 240 3.2 0.0 0.00 0.00 0.00 88 1011.9
20260507200002 8 250 4.8 0.0 0.00 0.00 0.00 88 1011.9
20260507194502 8 250 4.8 0.0 0.00 0.00 0.00 88 1011.6
20260507193002 8 220 3.2 0.0 0.00 0.00 0.00 88 1011.6
20260507191502 8 210 4.8 0.0 0.00 0.00 0.00 86 1011.4
20260507190003 8 210 4.8 0.0 0.00 0.00 0.00 86 1011.4
20260507184502 8 210 4.8 0.0 0.00 0.00 0.00 84 1011.2
20260507183002 8 190 4.8 0.0 0.00 0.00 0.00 84 1011.2
20260507181502 9 180 4.8 0.0 0.00 0.00 0.00 81 1010.9
20260507180002 9 180 4.8 0.0 0.00 0.00 0.00 81 1010.9
20260507174502 9 100 4.8 0.0 0.00 0.00 0.00 77 1010.7
20260507173002 9 100 4.8 0.0 0.00 0.00 0.00 77 1010.7
20260507171502 10 120 4.8 0.0 0.00 0.00 0.00 74 1010.6
20260507170002 10 120 4.8 0.0 0.00 0.00 0.00 74 1010.6
20260507164502 10 130 6.4 0.0 0.00 0.00 0.00 73 1010.6
20260507163002 10 130 6.4 0.0 0.00 0.00 0.00 73 1010.6
20260507161502 10 130 6.4 0.0 0.00 0.00 0.00 72 1010.4
20260507160002 10 110 4.8 0.0 0.00 0.00 0.00 72 1010.4
20260507154503 10 110 4.8 0.0 0.00 0.00 0.00 74 1010.2
20260507153002 10 90 4.8 0.0 0.00 0.00 0.00 74 1010.2
20260507151502 10 70 4.8 0.0 0.00 0.00 0.00 72 1010.0
20260507150002 10 70 4.8 0.0 0.00 0.00 0.00 72 1010.0
20260507144502 9 70 4.8 0.0 0.00 0.00 0.00 73 1009.9
20260507143002 9 50 11.3 0.0 0.00 0.00 0.00 73 1009.9
20260507141502 9 50 11.3 0.0 0.00 0.00 0.00 74 1009.8
20260507140002 9 60 9.7 0.0 0.00 0.00 0.00 74 1009.8
20260507134502 8 70 14.5 0.0 0.00 0.00 0.00 74 1009.7
20260507133002 8 70 14.5 0.0 0.00 0.00 0.00 74 1009.7
20260507131502 8 70 14.5 0.0 0.00 0.00 0.00 76 1009.5
20260507130003 8 60 12.9 0.0 0.00 0.00 0.00 76 1009.5
20260507124502 8 60 12.9 0.0 0.00 0.00 0.00 77 1009.5
20260507123002 8 50 16.1 0.0 0.00 0.00 0.00 77 1009.5
20260507121502 8 40 14.5 0.0 0.00 0.00 0.00 77 1009.2
20260507120002 8 40 14.5 0.0 0.00 0.00 0.00 77 1009.2
20260507114502 8 60 14.5 0.0 0.00 0.00 0.00 77 1009.1
20260507113002 8 60 14.5 0.0 0.00 0.00 0.00 77 1009.1
20260507111503 7 20 14.5 0.0 0.00 0.00 0.00 81 1008.9
20260507110002 7 20 14.5 0.0 0.00 0.00 0.00 81 1008.9
20260507104502 8 50 12.9 0.0 0.00 0.00 0.00 81 1008.6
20260507103003 8 50 12.9 0.0 0.00 0.00 0.00 81 1008.6
20260507101502 8 40 17.7 0.0 0.00 0.00 0.00 79 1008.2
20260507100002 8 40 17.7 0.0 0.00 0.00 0.00 79 1008.2
20260507094502 7 40 17.7 0.0 0.00 0.00 0.00 81 1007.9
20260507093002 7 40 16.1 0.0 0.00 0.00 0.00 81 1007.9
20260507091502 7 50 17.7 0.0 0.00 0.00 0.00 79 1007.5
20260507090002 7 50 17.7 0.0 0.00 0.00 0.00 79 1007.5
20260507084503 7 50 17.7 0.0 0.00 0.00 0.00 78 1007.2
20260507083002 7 50 17.7 0.0 0.00 0.00 0.00 78 1007.2
20260507081503 7 50 17.7 0.0 0.00 0.00 0.00 79 1007.0
20260507080002 7 60 19.3 0.0 0.00 0.00 0.00 79 1007.0
20260507074502 7 60 19.3 0.0 0.00 0.00 0.00 82 1006.8
20260507073002 7 50 17.7 0.0 0.00 0.00 0.00 82 1006.8
20260507071503 7 50 17.7 0.0 0.00 0.00 0.00 83 1006.5
20260507070003 7 50 16.1 0.0 0.00 0.00 0.00 83 1006.5
20260507064502 7 50 16.1 0.0 0.00 0.00 0.00 84 1006.2
20260507063002 7 60 16.1 0.0 0.00 0.00 0.00 84 1006.2
20260507061502 7 60 16.1 0.0 0.00 0.00 0.00 84 1006.0
20260507060002 7 50 16.1 0.0 0.00 0.00 0.00 84 1006.0
20260507054502 7 50 16.1 0.0 0.00 0.00 0.00 84 1005.7
20260507053002 7 50 14.5 0.0 0.00 0.00 0.00 84 1005.7
20260507051502 7 50 14.5 0.0 0.00 0.00 0.00 83 1005.4
20260507050002 7 60 14.5 0.0 0.00 0.00 0.00 83 1005.4
20260507044503 7 60 14.5 0.0 0.00 0.00 0.00 83 1005.0
20260507043002 7 70 16.1 0.0 0.00 0.00 0.00 83 1005.0
20260507041502 6 70 17.7 0.0 0.00 0.00 0.00 85 1005.1
20260507040002 6 70 17.7 0.0 0.00 0.00 0.00 85 1005.1
20260507034502 6 40 17.7 0.0 0.00 0.00 0.00 85 1004.9
20260507033003 6 40 17.7 0.0 0.00 0.00 0.00 85 1004.9
20260507031502 6 50 12.9 0.0 0.00 0.00 0.00 85 1004.8
20260507030003 6 50 12.9 0.0 0.00 0.00 0.00 85 1004.8